This is the latest recevied weather packets stored in our database for station/object K5GTX. If no packets are shown the sender has not sent any weather packets the latest 10 day(s).
| Time | Temp. | Humidity | Pressure | Rain* | Wind** | Luminosity | Snow |
|---|---|---|---|---|---|---|---|
| 1777385222 | 24.44° C | 99% | 1018 hPa | 0 mm | - | 23 W/m² | - |
| 1777384917 | 24.44° C | 99% | 1018.4 hPa | 0 mm | - | 20 W/m² | - |
| 1777384615 | 24.44° C | 99% | 1018.1 hPa | 0 mm | - | 18 W/m² | - |
| 1777384315 | 24.44° C | 99% | 1018.3 hPa | 0 mm | - | 17 W/m² | - |
| 1777384010 | 24.44° C | 99% | 1017.8 hPa | 0 mm | - | 18 W/m² | - |
| 1777383706 | 24.44° C | 99% | 1017.9 hPa | 0 mm | - | 27 W/m² | - |
| 1777383403 | 24.44° C | 99% | 1018.3 hPa | 0 mm | - | 22 W/m² | - |
| 1777383099 | 24.44° C | 99% | 1018.2 hPa | 0 mm | - | 28 W/m² | - |
| 1777382797 | 24.44° C | 99% | 1018.1 hPa | 0 mm | - | 5 W/m² | - |
| 1777382492 | 24.44° C | 99% | 1018.1 hPa | 0 mm | - | 2 W/m² | - |
| 1777382188 | 24.44° C | 99% | 1017.8 hPa | 0 mm | - | 22 W/m² | - |
| 1777381885 | 24.44° C | 99% | 1018.1 hPa | 0 mm | - | 16 W/m² | - |
| 1777381584 | 24.44° C | 99% | 1017.9 hPa | 0 mm | - | 7 W/m² | - |
| 1777381280 | 24.44° C | 99% | 1018.2 hPa | 0 mm | - | 11 W/m² | - |
| 1777380978 | 24.44° C | 99% | 1018.1 hPa | 0 mm | - | 13 W/m² | - |
| 1777380674 | 24.44° C | 99% | 1017.9 hPa | 0 mm | - | 12 W/m² | - |
| 1777380370 | 24.44° C | 99% | 1017.6 hPa | 0 mm | - | 10 W/m² | - |
| 1777380066 | 24.44° C | 99% | 1017.6 hPa | 0 mm | - | 18 W/m² | - |
| 1777379762 | 24.44° C | 99% | 1017.5 hPa | 0 mm | - | 16 W/m² | - |
| 1777379458 | 24.44° C | 99% | 1017.3 hPa | 0 mm | - | 11 W/m² | - |
| 1777379152 | 24.44° C | 99% | 1017.2 hPa | 0 mm | - | 2 W/m² | - |
| 1777378849 | 24.44° C | 99% | 1017.4 hPa | 0 mm | - | 0 W/m² | - |
| 1777378545 | 24.44° C | 99% | 1017.2 hPa | 0 mm | - | 0 W/m² | - |
| 1777378241 | 24.44° C | 99% | 1017.3 hPa | 0 mm | - | 5 W/m² | - |
| 1777377939 | 24.44° C | 99% | 1017 hPa | 0 mm | - | 2 W/m² | - |
* Rain latest hour (hover to see other rain measurements)
** Current wind speed in m/s (hover to see current wind gust speed)